Home > Weather > Prešov > Past weeks

Flag for Slovakia Weather for the Past 2 Weeks in Prešov, Slovakia

Now
37 °F

Light rain. Fog.


Feels Like: 35 °F
Forecast: 40 / 48 °F
Wind: 3 mph from South

Location: Kosice - Barca

Current Time: Feb 8, 2016 at 11:29:35 PM

Latest Report: Feb 8, 2016 at 10:30 PM


Visibility: 2 mi

Pressure: 29.89 "Hg

Humidity: 93%

Dew point: 36 °F

Location of PrešovLocation

Historic Weather in Prešov — Graph

°F

Prešov Temperature Yesterday

Maximum temperature yesterday: 45 °F (at 12:30 PM)
Minimum temperature yesterday: 32 °F (at 5:00 AM)
Average temperature yesterday: 37 °F

High & Low Weather Summary for the Past Weeks

 TemperatureHumidityPressure
High45 °F (Feb 3, 1:30 PM)100% (Jan 25, 6:00 AM)30.54 "Hg (Jan 25, 6:00 AM)
Low23 °F (Jan 24, 10:00 PM)45% (Feb 5, 3:00 PM)29.74 "Hg (Jan 31, 6:00 AM)
Average34 °F90%30.16 "Hg
* Reported Jan 24 10:00 PM — Feb 8 10:00 PM, Prešov, Weather by CustomWeather, © 2016

Note: Actual official high and low records may vary slightly from our data, if they occured in-between our weather recording intervals... More about our weather records

Advertising

Prešov Weather History for the Previous 24 Hours

 ConditionsComfort  
Time TempWeatherWind HumidityBarometerVisibility
10:00 PM
Mon, Feb 8
39 °FLight rain. Fog.3 mph100%29.92 "Hg3 mi
9:30 PM39 °FLight rain. Fog.6 mph93%29.92 "Hg3 mi
9:00 PM36 °FLight rain. Overcast.3 mph100%29.92 "Hg4 mi
8:30 PM36 °FLight rain. Mostly cloudy.5 mph100%29.95 "HgN/A
8:00 PM36 °FLight rain. Mostly cloudy.2 mph100%29.95 "HgN/A
7:30 PM36 °FLight rain. Mostly cloudy.5 mph93%29.95 "HgN/A
7:00 PM36 °FLight rain. Overcast.1 mph100%29.98 "HgN/A
6:30 PM36 °FLight rain. Mostly cloudy.3 mph93%29.98 "HgN/A
6:00 PM36 °FLight rain. Clear.2 mph93%29.98 "HgN/A
5:30 PM36 °FLight rain. Overcast.1 mph93%29.98 "HgN/A
5:00 PM36 °FLight rain. Overcast.2 mph93%29.98 "HgN/A
4:30 PM37 °FLight rain. Overcast.3 mph87%29.98 "HgN/A
4:00 PM37 °FLight rain. Mostly cloudy.5 mph87%29.98 "HgN/A
3:30 PM37 °FLight rain. Overcast.7 mph87%29.98 "HgN/A
3:00 PM37 °FLight rain. Overcast.5 mph87%30.01 "HgN/A
2:30 PM37 °FLight rain. Overcast.7 mph87%30.01 "HgN/A
2:00 PM37 °FLight rain. More clouds than sun.8 mph87%30.01 "HgN/A
1:30 PM37 °FOvercast.5 mph81%30.01 "HgN/A
1:00 PM37 °FOvercast.3 mph81%30.01 "HgN/A
12:30 PM37 °FLight rain. Overcast.5 mph81%30.04 "HgN/A
12:00 PM37 °FOvercast.5 mph81%30.04 "HgN/A
11:30 AM37 °FPartly sunny.6 mph81%30.04 "HgN/A
11:00 AM37 °FPartly sunny.3 mph81%30.04 "HgN/A
10:30 AM36 °FPartly sunny.6 mph81%30.04 "HgN/A
10:00 AM36 °FPartly sunny.6 mph81%30.04 "HgN/A
9:30 AM36 °FPartly sunny.7 mph81%30.04 "HgN/A
9:00 AM36 °FPartly sunny.9 mph81%30.04 "HgN/A
8:30 AM36 °FPartly sunny.7 mph87%30.04 "HgN/A
8:00 AM36 °FBroken clouds.7 mph81%30.04 "HgN/A
7:30 AM36 °FPartly sunny.8 mph81%30.04 "HgN/A
7:00 AM36 °FPartly sunny.9 mph81%30.04 "HgN/A
6:30 AM36 °FPassing clouds.6 mph81%30.04 "HgN/A
6:00 AM34 °FClear.3 mph87%30.04 "Hg10 mi
5:30 AM34 °FClear.2 mph87%30.01 "Hg10 mi
5:00 AM36 °FClear.1 mph81%30.04 "Hg10 mi
4:30 AM36 °FClear.1 mph81%30.01 "Hg10 mi
4:00 AM36 °FClear.5 mph81%30.04 "Hg10 mi
3:00 AM36 °FClear.3 mph87%30.04 "Hg10 mi
2:30 AM34 °FClear.2 mph93%30.04 "Hg10 mi
2:00 AM36 °FClear.6 mph87%30.04 "Hg10 mi
1:30 AM36 °FPassing clouds.5 mph87%30.04 "HgN/A
1:00 AM36 °FClear.6 mph93%30.04 "Hg10 mi
12:00 AM37 °FClear.7 mph87%30.04 "Hg10 mi
11:30 PM
Sun, Feb 7
37 °FClear.8 mph87%30.04 "Hg10 mi
11:00 PM34 °FPassing clouds.3 mph87%30.04 "HgN/A
Weather by CustomWeather, © 2016

See weather overviewHow to use our weather pages